EN

Hourly Weather Novye Ozerki

Today, 16 May, Sunday

Time Temperature Precipitation Wind Pressure Humidity
00:00 +19°C° 0 mm 2 mps 753 mmHg 54%
01:00 +19°C° 0 mm 2 mps 753 mmHg 55%
02:00 +18°C° 0 mm 3 mps 753 mmHg 56%
03:00 +18°C° 0 mm 3 mps 753 mmHg 57%
04:00 +18°C° 0 mm 3 mps 753 mmHg 58%
05:00 +19°C° 0 mm 3 mps 753 mmHg 59%
06:00 +20°C° 0 mm 3 mps 753 mmHg 60%
07:00 +22°C° 0 mm 3 mps 754 mmHg 52%
08:00 +25°C° 0 mm 4 mps 754 mmHg 44%
09:00 +27°C° 0 mm 5 mps 754 mmHg 37%
10:00 +28°C° 0 mm 5 mps 754 mmHg 34%
11:00 +29°C° 0 mm 6 mps 754 mmHg 31%
12:00 +32°C° 0 mm 6 mps 754 mmHg 29%
13:00 +32°C° 0 mm 6 mps 753 mmHg 28%
14:00 +32°C° 0 mm 5 mps 753 mmHg 27%
15:00 +32°C° 0 mm 5 mps 753 mmHg 27%
16:00 +30°C° 0 mm 3 mps 753 mmHg 31%
17:00 +29°C° 0 mm 2 mps 753 mmHg 35%
18:00 +28°C° 0 mm 1 mps 752 mmHg 40%
19:00 +27°C° 0 mm 1 mps 752 mmHg 41%
20:00 +25°C° 0 mm 1 mps 753 mmHg 43%
21:00 +24°C° 0 mm 2 mps 753 mmHg 44%
22:00 +23°C° 0 mm 2 mps 753 mmHg 47%
23:00 +21°C° 0 mm 2 mps 753 mmHg 49%

Tomorrow, 17 May, Monday

Time Temperature Precipitation Wind Pressure Humidity
00:00 +20°C° 0 mm 2 mps 753 mmHg 51%
01:00 +20°C° 0 mm 2 mps 753 mmHg 52%
02:00 +20°C° 0 mm 2 mps 753 mmHg 53%
03:00 +19°C° 0 mm 2 mps 753 mmHg 53%
04:00 +20°C° 0 mm 2 mps 753 mmHg 56%
05:00 +20°C° 0 mm 2 mps 753 mmHg 58%
06:00 +20°C° 0 mm 2 mps 754 mmHg 60%
07:00 +24°C° 0 mm 2 mps 754 mmHg 54%
08:00 +26°C° 0 mm 3 mps 754 mmHg 47%
09:00 +28°C° 0 mm 3 mps 754 mmHg 40%
10:00 +29°C° 0 mm 3 mps 754 mmHg 36%
11:00 +30°C° 0 mm 3 mps 754 mmHg 32%
12:00 +33°C° 0 mm 3 mps 754 mmHg 27%
13:00 +33°C° 0 mm 3 mps 754 mmHg 26%
14:00 +33°C° 0 mm 4 mps 754 mmHg 24%
15:00 +33°C° 0 mm 4 mps 753 mmHg 23%
16:00 +32°C° 0 mm 4 mps 753 mmHg 29%
17:00 +30°C° 0 mm 3 mps 753 mmHg 34%
18:00 +29°C° 0 mm 2 mps 753 mmHg 40%
19:00 +27°C° 0 mm 2 mps 753 mmHg 40%
20:00 +25°C° 0 mm 2 mps 753 mmHg 41%
21:00 +23°C° 0 mm 2 mps 753 mmHg 41%
22:00 +23°C° 0 mm 2 mps 753 mmHg 43%
23:00 +21°C° 0 mm 2 mps 753 mmHg 45%

Day after tomorrow, 18 May, Tuesday

Time Temperature Precipitation Wind Pressure Humidity
00:00 +20°C° 0 mm 2 mps 753 mmHg 47%
01:00 +20°C° 0 mm 1 mps 753 mmHg 47%
02:00 +20°C° 0 mm 1 mps 753 mmHg 47%
03:00 +19°C° 0 mm 1 mps 753 mmHg 47%
04:00 +20°C° 0 mm 1 mps 753 mmHg 48%
05:00 +21°C° 0 mm 1 mps 753 mmHg 49%
06:00 +22°C° 0 mm 1 mps 753 mmHg 49%
07:00 +24°C° 0 mm 2 mps 753 mmHg 44%
08:00 +26°C° 0 mm 2 mps 753 mmHg 40%
09:00 +28°C° 0 mm 3 mps 753 mmHg 35%
10:00 +29°C° 0 mm 3 mps 753 mmHg 32%
11:00 +32°C° 0 mm 4 mps 753 mmHg 29%
12:00 +33°C° 0 mm 4 mps 753 mmHg 26%
13:00 +33°C° 0 mm 4 mps 753 mmHg 25%
14:00 +33°C° 0 mm 4 mps 752 mmHg 24%
15:00 +34°C° 0 mm 4 mps 752 mmHg 23%
16:00 +33°C° 0 mm 3 mps 752 mmHg 28%
17:00 +30°C° 0 mm 3 mps 752 mmHg 33%
18:00 +29°C° 0 mm 2 mps 752 mmHg 39%
19:00 +27°C° 0 mm 2 mps 752 mmHg 39%
20:00 +25°C° 0 mm 2 mps 752 mmHg 39%
21:00 +24°C° 0 mm 2 mps 752 mmHg 39%
22:00 +23°C° 0 mm 2 mps 752 mmHg 40%
23:00 +21°C° 0 mm 3 mps 752 mmHg 41%

19 May, Wednesday

Time Temperature Precipitation Wind Pressure Humidity
00:00 +20°C° 0 mm 3 mps 752 mmHg 42%
01:00 +19°C° 0 mm 2 mps 752 mmHg 47%
02:00 +19°C° 0 mm 2 mps 752 mmHg 52%
03:00 +18°C° 0 mm 2 mps 752 mmHg 57%
04:00 +18°C° 0 mm 2 mps 752 mmHg 58%
05:00 +19°C° 0 mm 2 mps 752 mmHg 60%
06:00 +20°C° 0 mm 3 mps 752 mmHg 62%
07:00 +22°C° 0 mm 3 mps 752 mmHg 57%
08:00 +25°C° 0 mm 4 mps 752 mmHg 52%
09:00 +27°C° 0 mm 5 mps 752 mmHg 47%
10:00 +29°C° 0 mm 5 mps 751 mmHg 42%
11:00 +30°C° 0 mm 5 mps 751 mmHg 38%
12:00 +32°C° 0 mm 5 mps 751 mmHg 34%
13:00 +33°C° 0 mm 5 mps 751 mmHg 31%
14:00 +33°C° 0 mm 5 mps 751 mmHg 29%
15:00 +33°C° 0 mm 5 mps 751 mmHg 27%
16:00 +32°C° 0 mm 4 mps 750 mmHg 32%
17:00 +30°C° 0 mm 3 mps 750 mmHg 37%
18:00 +29°C° 0 mm 2 mps 750 mmHg 41%
19:00 +28°C° 0 mm 3 mps 750 mmHg 44%
20:00 +26°C° 0 mm 3 mps 750 mmHg 46%
21:00 +25°C° 0 mm 4 mps 751 mmHg 49%
22:00 +23°C° 0 mm 4 mps 751 mmHg 52%
23:00 +22°C° 0 mm 3 mps 751 mmHg 56%

20 May, Thursday

Time Temperature Precipitation Wind Pressure Humidity
00:00 +21°C° 0 mm 3 mps 751 mmHg 59%
01:00 +21°C° 0 mm 3 mps 751 mmHg 60%
02:00 +21°C° 0 mm 4 mps 751 mmHg 60%
03:00 +20°C° 0 mm 4 mps 751 mmHg 61%
04:00 +21°C° 0 mm 5 mps 751 mmHg 62%
05:00 +21°C° 0 mm 5 mps 751 mmHg 63%
06:00 +21°C° 0 mm 6 mps 750 mmHg 65%
07:00 +22°C° 0 mm 7 mps 751 mmHg 60%
08:00 +24°C° 0 mm 8 mps 751 mmHg 56%
09:00 +26°C° 0 mm 9 mps 751 mmHg 51%
10:00 +27°C° 0 mm 8 mps 751 mmHg 49%
11:00 +28°C° 0 mm 8 mps 751 mmHg 47%
12:00 +29°C° 0 mm 8 mps 751 mmHg 45%
13:00 +28°C° 0 mm 7 mps 751 mmHg 46%
14:00 +28°C° 0 mm 6 mps 751 mmHg 48%
15:00 +28°C° 0 mm 6 mps 751 mmHg 50%
16:00 +27°C° 0 mm 5 mps 752 mmHg 55%
17:00 +25°C° 0 mm 5 mps 752 mmHg 61%
18:00 +23°C° 0 mm 5 mps 752 mmHg 67%
19:00 +22°C° 0 mm 4 mps 753 mmHg 72%
20:00 +20°C° 0 mm 3 mps 753 mmHg 77%
21:00 +19°C° 0 mm 3 mps 754 mmHg 81%
22:00 +18°C° 0.2 mm 2 mps 754 mmHg 83%
23:00 +18°C° 0.2 mm 2 mps 754 mmHg 85%

21 May, Friday

Time Temperature Precipitation Wind Pressure Humidity
00:00 +18°C° 0.2 mm 2 mps 754 mmHg 87%
01:00 +17°C° 0.2 mm 2 mps 754 mmHg 88%
02:00 +17°C° 0.2 mm 2 mps 754 mmHg 88%
03:00 +17°C° 0.2 mm 2 mps 754 mmHg 88%
04:00 +17°C° 0.5 mm 3 mps 754 mmHg 89%
05:00 +17°C° 0.5 mm 3 mps 754 mmHg 90%
06:00 +18°C° 0.5 mm 4 mps 754 mmHg 91%
07:00 +19°C° 0 mm 4 mps 754 mmHg 82%
08:00 +21°C° 0 mm 3 mps 754 mmHg 73%
09:00 +24°C° 0 mm 3 mps 753 mmHg 64%
10:00 +25°C° 0 mm 4 mps 753 mmHg 57%
11:00 +27°C° 0 mm 4 mps 753 mmHg 50%
12:00 +28°C° 0 mm 4 mps 753 mmHg 43%
13:00 +29°C° 0 mm 5 mps 752 mmHg 41%
14:00 +30°C° 0 mm 5 mps 752 mmHg 40%
15:00 +32°C° 0 mm 6 mps 752 mmHg 39%
16:00 +30°C° 0 mm 6 mps 752 mmHg 42%
17:00 +29°C° 0 mm 5 mps 752 mmHg 45%
18:00 +28°C° 0 mm 5 mps 752 mmHg 48%
19:00 +27°C° 0 mm 6 mps 752 mmHg 45%
20:00 +26°C° 0 mm 6 mps 752 mmHg 42%
21:00 +24°C° 0 mm 6 mps 752 mmHg 39%
22:00 +23°C° 0 mm 6 mps 752 mmHg 38%
23:00 +22°C° 0 mm 5 mps 752 mmHg 36%
Show more

We Need Your Consent

Meteoprog and our Service Providers may store and access personal data such as cookies, device identifiers or other similar technologies on your device and process such data to personalise content and ads, as well as provide social media features and to analyse the traffic.

  • Store and/or access information on your device

    Cookies, device identifiers or other information can be stored or accessed on your device for the purposes indicated above.

  • Personalised ads and content, ad and content measurement, audience insights, and products development

    Ads and content can be personalised based on a profile. More data can be added to better personalise ads and content. Ad and content performance can be measured. Insights about the audience who saw the ads and content can be derived. Such data can be used to develop or improve user’s experience, systems and software.

By clicking ‘I Agree’ you will allow the use of indicated cookies, device identifiers, web beacons or other similar technologies. Your settings can be changed in the browser on your device.

For certain purposes, legitimate interests may be relied on, rather than consent. You can read more about this in our Privacy and Cookie Policy.